Location: Peebles
(55.6412°N, 3.1714°W)
Time: 10:33:12
(UTC+01:00)

ATLAS CENTAUR R/B - Pass Details

Date: 26 September 2021
Orbit: 459 x 683 km, 64.7° (Epoch: 15 October)

Event Time Altitude Azimuth Distance (km) Brightness Sun altitude
Rises 20:25:38 0° 304° (NW) 2,934 6.6 -12.7°
Reaches altitude 10° 20:28:37 10° 284° (WNW) 2,058 5.7 -13.1°
Maximum altitude 20:31:29 16° 246° (WSW) 1,701 4.5 -13.5°
Drops below altitude 10° 20:34:25 10° 208° (SSW) 2,102 4.4 -13.9°
Sets 20:37:32 0° 188° (S) 3,027 5.0 -14.3°
